Regional Weather Roundup
Issued by NWS

Current Version | Previous Version | Text Only | Print | Product List | Glossary On
Versions: 1 2 3 4 5 6 7 8 9 10 11 12 13 14 15 16 17 18 19 20 21 22 23 24 25 26 27 28 29 30 31 32 33 34 35 36 37 38 39 40 41 42 43 44 45 46 47 48 49 50
709
ASUS45 KREV 010610
RWRNV
NEVADA REGIONAL WEATHER ROUNDUP
NATIONAL WEATHER SERVICE RENO NV
1100 PM PDT SAT APR 30 2016

NOTE: "FAIR" INDICATES FEW OR NO CLOUDS BELOW 12,000 FEET WITH NO
SIGNIFICANT WEATHER AND/OR OBSTRUCTIONS TO VISIBILITY.

NVZ001-003-004-010700-
WESTERN NEVADA

CITY           SKY/WX    TMP DP  RH WIND       PRES   REMARKS
RENO           PTCLDY    46  32  58 CALM      30.08S
6HR MIN TEMP:  45; 6HR MAX TEMP:  60;

CARSON CITY    FAIR      46  32  57 NE6       30.08F
MINDEN         FAIR      39  36  87 SE6       30.09S
PYRAMID LAKE     N/A     55 N/A N/A SW5         N/A
FALLON         PTCLDY    50  28  42 CALM      30.04S
6HR MIN TEMP:  47; 6HR MAX TEMP:  63;

LOVELOCK       CLEAR     52  31  44 N7        30.05R
6HR MIN TEMP:  50; 6HR MAX TEMP:  65;

HAWTHORNE      CLOUDY    54  37  54 CALM      30.05R
$$

NVZ002-CAZ072-073-010700-
NORTHERN AND CENTRAL SIERRA

CITY           SKY/WX    TMP DP  RH WIND       PRES   REMARKS
S. LAKE TAHOE  CLEAR     43  28  55 N7G20     30.08F
6HR MIN TEMP:  43; 6HR MAX TEMP:  49;

TRUCKEE        PTCLDY    34  30  86 SE3       30.10S
SQUAW VLY 8000   N/A     36  27  69 N12         N/A
SUSANVILLE     CLEAR     48  32  53 S3        30.07F
BLUE CANYON    CLEAR     49  26  41 VRB7G21   30.00F
MAMMOTH LAKES  CLOUDY    40  30  66 SW5       30.11S
6HR MIN TEMP:  40; 6HR MAX TEMP:  50;

BRIDGEPORT     CLOUDY    40  32  73 CALM      30.09S
$$

NVZ030-031-036-010700-
NORTHERN NEVADA

CITY           SKY/WX    TMP DP  RH WIND       PRES   REMARKS
ELKO           CLEAR     44  34  67 NE5       30.06S
6HR MIN TEMP:  44; 6HR MAX TEMP:  58;

WINNEMUCCA     PTCLDY    48  34  58 NE10      30.08R
6HR MIN TEMP:  48; 6HR MAX TEMP:  62;

WENDOVER       MOCLDY    50  36  57 N17       30.05R
$$

NVZ035-037-010700-
CENTRAL NEVADA

CITY           SKY/WX    TMP DP  RH WIND       PRES   REMARKS
ELY            LGT RAIN  39  35  86 N12       30.04S
6HR MIN TEMP:  39; 6HR MAX TEMP:  49; 6HR PCP: TRACE;

EUREKA           N/A     41  34  76 N8        30.05F
6HR MIN TEMP:  41; 6HR MAX TEMP:  51;

$$

NVZ013-014-010700-
SOUTH CENTRAL NEVADA

CITY           SKY/WX    TMP DP  RH WIND       PRES   REMARKS
TONOPAH        CLOUDY    50  33  52 NE21G29   30.01S
6HR MIN TEMP:  50; 6HR MAX TEMP:  60;

$$

NVZ017-020-022-010700-
SOUTHERN NEVADA

CITY           SKY/WX    TMP DP  RH WIND       PRES   REMARKS
LAS VEGAS      MOCLDY    60  49  66 NW7       29.79F
6HR MIN TEMP:  54; 6HR MAX TEMP:  60; 6HR PCP:  0.37;

N. LAS VEGAS   CLOUDY    59  49  69 N8        29.83F
6HR MIN TEMP:  56; 6HR MAX TEMP:  59; 6HR PCP:  0.03;

NELLIS AFB     MOCLDY    57  53  85 SE3       29.82F
6HR MIN TEMP:  56; 6HR MAX TEMP:  59; 6HR PCP: TRACE;

HENDERSON      MOCLDY    54  50  86 SE3       29.86S
6HR MIN TEMP:  54; 6HR MAX TEMP:  61; 6HR PCP:  0.10;

MERCURY        MOCLDY    55  45  68 E5        29.88R
6HR MIN TEMP:  53; 6HR MAX TEMP:  62; 6HR PCP: TRACE;

$$




USA.gov is the U.S. government's official web portal to all federal, state and local government web resources and services.